User: anonymous
Location: Unspecified
(0.0000°N, 0.0000°E)
Time: 11:26:15
(UTC+02:00)
Language:

Iridium 4 Rocket - Orbit

View from above orbital plane
View from above orbital plane
View from above satellite
View from above satellite

Ground track
Ground track

The orbit data is extracted from the following two-line orbital elements,

1 24797U 97020F   14234.96885527  .00000598  00000-0  12319-3 0  7439
2 24797 086.8995 010.0855 0229615 147.0678 348.6987 14.43146501909454
Epoch (UTC): 22 August 2014 23:15:09
Eccentricity: 0.0229615
inclination: 86.8995°
perigee height: 584 km
apogee height: 912 km
right ascension of ascending node: 10.0855°
argument of perigee: 147.0678°
revolutions per day: 14.43146501
mean anomaly at epoch: 348.6987°
orbit number at epoch: 90945

The dashed part of the orbit path shows where the satellite is in the earth's shadow,  

DLR